Date String (YYYY-MM-DD hh:mm:ss) UTC,Instrument flags,Ambient pressure (hPa),Sample flow (lpm),Bypass flow (lpm),Sample temperature (°C),Ambient temperature (°C),ASC tube jacket temperature (°C),LED temperature (°C),Box temperature (°C),Sample RH (%),Span deviation,Mass concentration (μg/m³),Mass concentration (μg/m³),Mass concentration (μg/m³)
DateTimeUTC,F1_M11,P_M11,Q1_M11,Q2_M11,T1_M11,T2_M11,T3_M11,T4_M11,T5_M11,U1_M11,ZSPAN_M11,X0_M11,X2_M11,X1_M11
2021-12-20 10:00:00,,0825.1,4.99,0.00,23.0,22.0,00.0,32.1,24.6,05.6,0000.0,0003.23,0000.61,0000.49
2021-12-20 10:01:00,,0825.1,5.00,0.00,23.0,22.0,00.0,32.1,24.5,05.6,0000.0,0003.20,0000.61,0000.50
2021-12-20 10:02:00,,0825.1,5.01,0.00,23.0,22.0,00.0,32.1,24.5,05.6,0000.0,0002.39,0000.61,0000.50
2021-12-20 10:03:00,,0825.2,4.99,0.00,23.0,22.0,00.0,32.1,24.6,05.6,0000.0,0001.90,0000.63,0000.51
2021-12-20 10:04:00,,0825.2,5.01,0.00,23.0,22.0,00.0,32.1,24.6,05.6,0000.0,0001.84,0000.63,0000.51
2021-12-20 10:05:00,,0825.2,5.00,0.00,23.0,22.0,00.0,32.0,24.6,05.6,0000.0,0000.78,0000.60,0000.52
2021-12-20 10:06:00,,0825.2,4.99,0.00,23.0,21.9,00.0,32.0,24.5,05.6,0000.0,0000.75,0000.59,0000.52
2021-12-20 10:07:00,,0825.2,5.00,0.00,22.9,21.9,00.0,32.0,24.6,05.6,0000.0,0000.75,0000.59,0000.52
2021-12-20 10:08:00,,0825.2,5.00,0.00,23.0,22.0,00.0,32.0,24.6,05.6,0000.0,0000.76,0000.60,0000.53
2021-12-20 10:09:00,,0825.2,5.01,0.00,23.0,21.9,00.0,32.0,24.5,05.7,0000.0,0000.73,0000.59,0000.53
2021-12-20 10:10:00,,0825.2,4.99,0.00,22.9,21.9,00.0,32.0,24.5,05.7,0000.0,0000.71,0000.58,0000.53
2021-12-20 10:11:00,,0825.1,4.99,0.00,22.9,21.9,00.0,32.0,24.5,05.7,0000.0,0000.70,0000.58,0000.53
2021-12-20 10:12:00,,0825.1,5.01,0.00,22.9,22.0,00.0,32.0,24.6,05.7,0000.0,0000.69,0000.58,0000.53
2021-12-20 10:13:00,,0825.1,5.00,0.00,22.9,22.0,00.0,32.0,24.5,05.7,0000.0,0000.69,0000.58,0000.52
2021-12-20 10:14:00,,0825.1,4.99,0.00,22.9,21.9,00.0,32.0,24.5,05.8,0000.0,0000.65,0000.55,0000.52
2021-12-20 10:15:00,,0825.1,5.01,0.00,22.9,21.9,00.0,32.0,24.6,05.8,0000.0,0000.64,0000.54,0000.51
2021-12-20 10:16:00,,0825.1,4.99,0.00,22.9,22.0,00.0,32.0,24.6,05.8,0000.0,0000.62,0000.53,0000.51
2021-12-20 10:17:00,,0825.1,5.01,0.00,22.9,22.0,00.0,32.0,24.6,05.8,0000.0,0000.63,0000.53,0000.50
2021-12-20 10:18:00,,0825.1,5.00,0.00,22.9,22.0,00.0,32.0,24.6,05.7,0000.0,0000.62,0000.52,0000.49
2021-12-20 10:19:00,,0825.1,5.00,0.00,22.9,22.0,00.0,32.0,24.6,05.7,0000.0,0000.62,0000.51,0000.49
2021-12-20 10:20:00,,0825.1,5.00,0.00,22.9,22.0,00.0,32.0,24.6,05.7,0000.0,0000.61,0000.50,0000.48
2021-12-20 10:21:00,,0825.1,5.00,0.00,22.9,22.0,00.0,32.0,24.7,05.7,0000.0,0000.63,0000.51,0000.48
2021-12-20 10:22:00,,0825.2,5.01,0.00,22.9,22.0,00.0,32.0,24.6,05.7,0000.0,0000.63,0000.51,0000.47
2021-12-20 10:23:00,,0825.1,4.99,0.00,23.0,22.0,00.0,32.0,24.6,05.7,0000.0,0000.63,0000.51,0000.47
2021-12-20 10:24:00,,0825.1,5.02,0.00,22.9,22.0,00.0,32.0,24.6,05.7,0000.0,0000.63,0000.51,0000.48
2021-12-20 10:25:00,,0825.2,4.99,0.00,23.0,22.0,00.0,32.0,24.6,05.7,0000.0,0000.65,0000.52,0000.48
2021-12-20 10:26:00,,0825.1,4.99,0.00,23.0,22.1,00.0,32.0,24.7,05.7,0000.0,0000.67,0000.53,0000.48
2021-12-20 10:27:00,,0825.1,5.01,0.00,23.0,22.1,00.0,32.0,24.7,05.7,0000.0,0000.67,0000.53,0000.48
2021-12-20 10:28:00,,0825.1,5.00,0.00,23.0,22.1,00.0,32.0,24.7,05.7,0000.0,0000.63,0000.53,0000.48
2021-12-20 10:29:00,,0825.1,5.00,0.00,23.0,22.1,00.0,32.0,24.7,05.7,0000.0,0000.64,0000.53,0000.49
2021-12-20 10:30:00,,0825.2,5.00,0.00,23.0,22.1,00.0,32.0,24.8,05.7,0000.0,0000.64,0000.53,0000.49
2021-12-20 10:31:00,,0825.2,4.99,0.00,23.0,22.2,00.0,32.0,24.8,05.7,0000.0,0000.63,0000.53,0000.49
2021-12-20 10:32:00,,0825.2,5.00,0.00,23.0,22.2,00.0,32.0,24.8,05.7,0000.0,0000.61,0000.53,0000.49
2021-12-20 10:33:00,,0825.2,4.99,0.00,23.0,22.2,00.0,32.0,24.8,05.8,0000.0,0000.59,0000.52,0000.49
2021-12-20 10:34:00,,0825.2,5.01,0.00,23.0,22.2,00.0,32.0,24.8,05.8,0000.0,0000.59,0000.52,0000.49
2021-12-20 10:35:00,,0825.2,4.99,0.00,23.1,22.2,00.0,32.0,24.8,05.8,0000.0,0000.71,0000.53,0000.49
2021-12-20 10:36:00,,0825.2,5.01,0.00,23.1,22.3,00.0,32.0,24.8,05.8,0000.0,0000.72,0000.53,0000.49
2021-12-20 10:37:00,,0825.2,4.99,0.00,23.1,22.3,00.0,32.0,24.9,05.8,0000.0,0000.72,0000.52,0000.49
2021-12-20 10:38:00,,0825.2,5.00,0.00,23.1,22.3,00.0,32.0,24.9,05.8,0000.0,0001.03,0000.54,0000.49
2021-12-20 10:39:00,,0825.2,5.01,0.00,23.1,22.3,00.0,32.0,24.9,05.8,0000.0,0001.68,0000.54,0000.49
2021-12-20 10:40:00,,0825.2,4.99,0.00,23.1,22.3,00.0,32.0,24.9,05.8,0000.0,0001.68,0000.54,0000.48
2021-12-20 10:41:00,,0825.2,5.00,0.00,23.1,22.3,00.0,32.1,24.9,05.8,0000.0,0001.68,0000.54,0000.48
2021-12-20 10:42:00,,0825.2,4.99,0.00,23.1,22.4,00.0,32.1,24.9,05.8,0000.0,0001.68,0000.54,0000.48
2021-12-20 10:43:00,,0825.2,5.01,0.00,23.1,22.4,00.0,32.1,24.9,05.8,0000.0,0001.72,0000.54,0000.46
2021-12-20 10:44:00,,0825.2,4.99,0.00,23.2,22.4,00.0,32.1,24.9,05.8,0000.0,0001.76,0000.55,0000.46
2021-12-20 10:45:00,,0825.2,5.00,0.00,23.2,22.4,00.0,32.1,25.0,05.8,0000.0,0001.78,0000.56,0000.46
2021-12-20 10:46:00,,0825.2,5.00,0.00,23.2,22.4,00.0,32.1,25.0,05.8,0000.0,0001.68,0000.55,0000.45
2021-12-20 10:47:00,,0825.2,4.99,0.00,23.2,22.4,00.0,32.1,25.0,05.8,0000.0,0001.65,0000.54,0000.45
2021-12-20 10:48:00,,0825.2,4.99,0.00,23.2,22.4,00.0,32.1,25.0,05.8,0000.0,0001.67,0000.54,0000.45
2021-12-20 10:49:00,,0825.1,5.01,0.00,23.2,22.4,00.0,32.1,25.0,05.8,0000.0,0001.47,0000.53,0000.45
2021-12-20 10:50:00,,0825.1,4.99,0.00,23.2,22.4,00.0,32.1,25.0,05.8,0000.0,0000.70,0000.52,0000.45
2021-12-20 10:51:00,,0825.2,5.01,0.00,23.2,22.5,00.0,32.1,25.0,05.8,0000.0,0000.69,0000.51,0000.44
2021-12-20 10:52:00,,0825.2,5.00,0.00,23.2,22.5,00.0,32.2,25.0,05.8,0000.0,0000.68,0000.51,0000.45
2021-12-20 10:53:00,,0825.2,5.00,0.00,23.2,22.5,00.0,32.2,25.0,05.8,0000.0,0000.69,0000.52,0000.44
2021-12-20 10:54:00,,0825.2,4.99,0.00,23.2,22.5,00.0,32.2,25.0,05.8,0000.0,0000.69,0000.52,0000.45
2021-12-20 10:55:00,,0825.2,4.99,0.00,23.3,22.5,00.0,32.2,25.0,05.8,0000.0,0000.72,0000.53,0000.45
2021-12-20 10:56:00,,0825.2,5.01,0.00,23.3,22.5,00.0,32.2,25.0,05.8,0000.0,0000.68,0000.52,0000.45
2021-12-20 10:57:00,,0825.2,5.00,0.00,23.3,22.5,00.0,32.2,25.0,05.8,0000.0,0000.68,0000.52,0000.45
2021-12-20 10:58:00,,0825.3,5.00,0.00,23.3,22.5,00.0,32.2,25.0,05.8,0000.0,0000.78,0000.53,0000.45
2021-12-20 10:59:00,,0825.2,4.99,0.00,23.3,22.5,00.0,32.2,25.1,05.8,0000.0,0000.76,0000.52,0000.45
